Location: Eisingen in Unterfranken
(49.7591°N, 9.8347°E)
Time: 08:00:17
(UTC+01:00)

Envisat - Pass Details

Date: 02 December 2022
Orbit: 763 x 765 km, 98.2° (Epoch: 04 February)

Event Time Altitude Azimuth Distance (km) Brightness Sun altitude
Rises 05:55:44 0° 6° (N) 3,247 6.2 -18.8°
Reaches altitude 10° 05:58:21 10° 354° (N) 2,316 5.3 -18.4°
Enters shadow 06:01:24 24° 321° (NW) 1,537 4.1 -17.9°
